Regional Weather Roundup
Issued by NWS Mt. Holly, NJ

Home | Current Version | Previous Version | Text Only | Print | Product List | Glossary On
Versions: 1 2 3 4 5 6 7 8 9 10 11 12 13 14 15 16 17 18 19 20 21 22 23 24 25 26 27 28 29 30 31 32 33 34 35 36 37 38 39 40 41 42 43 44 45 46 47 48 49 50
000
ASUS41 KPHI 011412
RWRPHI

REGIONAL WEATHER ROUNDUP
NATIONAL WEATHER SERVICE MOUNT HOLLY NJ
1000 AM EDT SAT AUG 01 2015

NOTE:  "FAIR" INDICATES FEW OR NO CLOUDS BELOW 12,000 FEET WITH NO
SIGNIFICANT WEATHER AND/OR OBSTRUCTIONS TO VISIBILITY.

 * = STATION DOES NOT REPORT PRECIPITATION (E.G. RAIN, SNOW, ETC.)
        OR FOG.

NJZ015>026-011500-
SOUTHERN NEW JERSEY

CITY           SKY/WX    TMP DP  RH WIND       PRES   REMARKS
POMONA         SUNNY     84  66  54 W9        29.85F
RIO GRANDE*    SUNNY     82  66  57 SW12      29.87F
MILLVILLE      SUNNY     84  65  52 W12       29.86F
MOUNT HOLLY    MOSUNNY   80  64  58 W7        29.84S
TRENTON        PTSUNNY   80  62  54 W12       29.84S

$$
NJZ001>014-011500-
NORTHERN NEW JERSEY

CITY           SKY/WX    TMP DP  RH WIND       PRES   REMARKS
SUSSEX         SUNNY     77  63  61 SW8       29.82F
ANDOVER*         N/A     76  65  68 S7        29.83F
MORRISTOWN     PTSUNNY   82  64  54 SW12      29.82R
NEWARK         PTSUNNY   83  61  47 W14       29.81R
TETERBORO      MOSUNNY   84  60  44 W7        29.79S
CALDWELL       PTSUNNY   80  60  50 NW9       29.81S
SOMERVILLE     CLOUDY    78  63  59 VRB3      29.81S
ALLAIRE*       SUNNY     81  63  54 W10       29.84S
TOMS RIVER*      N/A     82  64  54 W12       29.84F

$$
PAZ043-044-047-054-055-060>062-066>071-011500-
EASTERN PENNSYLVANIA

CITY           SKY/WX    TMP DP  RH WIND       PRES   REMARKS
PHILADELPHIA   PTSUNNY   83  61  47 W10       29.85F
NORTH PHILA    PTSUNNY   84  60  44 W12       29.85F
BLUE BELL      MOSUNNY   81  64  57 W6        29.85S
DOYLESTOWN     PTSUNNY   76  62  62 W9        29.84F
QUAKERTOWN*    MOSUNNY   77  64  65 W7        29.86F
POTTSTOWN      PTSUNNY   77  64  64 W6        29.87S
LANCASTER      MOSUNNY   78  64  61 W8        29.87S
COATESVILLE    SUNNY     77  64  65 W8        29.89S
READING        SUNNY     79  64  60 SW6       29.84F
ALLENTOWN      MOSUNNY   78  65  63 W8        29.84S
MOUNT POCONO   SUNNY     74  58  57 NW12      29.89R
HAZLETON       SUNNY     73  61  64 W7        29.92R
WILKES BARRE   MOSUNNY   77  62  59 VRB3      29.85R

$$
DEZALL-MDZ008-012-015-019-020-011500-
DELAWARE AND EASTERN MARYLAND

CITY           SKY/WX    TMP DP  RH WIND       PRES   REMARKS
WILMINGTON     PTSUNNY   79  64  60 W9        29.87S
DOVER          SUNNY     83  67  59 W10       29.85F
GEORGETOWN     SUNNY     83  66  56 SW7       29.88F
EASTON         SUNNY     86  68  54 W5        29.92S
PATUXENT       MOSUNNY   82  68  62 VRB6      29.89S
OCEAN CITY     SUNNY     85  65  51 W10       29.88F
WALLOPS ISLAND SUNNY     84  72  67 W6        29.90S
CAMBRIDGE      SUNNY     82  64  54 W5        29.88S
SALISBURY      SUNNY     83  69  62 SW9       29.88F

$$
PAZ001-021-NYZ056-072-MDZ011-DCZ001-011500-
OTHER NEARBY LOCATIONS

CITY           SKY/WX    TMP DP  RH WIND       PRES   REMARKS
HARRISBURG     MOSUNNY   80  62  54 W8        29.86S
STATE COLLEGE  MOSUNNY   73  61  64 W12       29.91S
WILLIAMSPORT   SUNNY     77  61  57 W8        29.85S
BINGHAMTON     MOSUNNY   70  60  70 W6        29.87R
NEW YORK CITY  MOSUNNY   81  60  48 W6        29.83S
BALTIMORE      PTSUNNY   79  64  60 W6        29.88S
WASHINGTON DC  PTSUNNY   85  63  47 W6        29.89F

$$


USA.gov is the U.S. government's official web portal to all federal, state and local government web resources and services.